Location: ??????
(42.0089°N, 44.3281°E)
Time: 17:23:09
(UTC+00:00)

METEOR 2-5 DEB - Visible Passes

Search period start: 11 August 2022 00:00
Search period end: 21 August 2022 00:00
Orbit: 816 x 827 km, 81.2° (Epoch: 06 August)

Date Brightness Start Highest point End Pass type
(mag) Time Alt. Az. Time Alt. Az. Time Alt. Az.
11 Aug ? 16:51:36 10° NNE 16:56:13 27° ENE 17:00:22 12° SE visible
11 Aug ? 18:33:32 10° NNW 18:38:38 40° W 18:41:48 21° SSW visible
12 Aug ? 16:31:21 10° NNE 16:35:27 21° ENE 16:39:32 10° ESE visible
12 Aug ? 18:12:45 10° NNW 18:18:05 52° W 18:21:42 20° SSW visible
13 Aug ? 17:52:03 10° NNW 17:57:31 68° W 18:01:37 18° S visible
14 Aug ? 17:31:23 10° N 17:36:55 87° W 17:41:36 15° S visible
14 Aug ? 19:17:31 10° WNW 19:18:18 10° W 19:19:04 10° W visible
15 Aug ? 17:10:46 10° N 17:16:17 73° E 17:21:37 11° SSE visible
15 Aug ? 18:55:08 10° NW 18:57:52 14° W 19:00:36 10° WSW visible
16 Aug ? 16:50:12 10° N 16:55:38 56° ENE 17:01:02 10° SSE visible
16 Aug ? 18:33:45 10° NW 18:37:25 18° W 18:41:04 10° SW visible
17 Aug ? 16:29:41 10° N 16:34:56 43° ENE 16:40:10 10° SSE visible
17 Aug ? 18:12:38 10° NW 18:16:55 24° W 18:21:13 10° SW visible
18 Aug ? 17:51:39 10° NNW 17:56:24 31° W 18:01:09 10° SSW visible
19 Aug ? 17:30:46 10° NNW 17:35:51 40° W 17:40:57 10° SSW visible
20 Aug ? 17:09:57 10° NNW 17:15:17 52° W 17:20:36 10° S visible
